Regional Weather Roundup
Issued by NWS Sioux Falls, SD

Home | Current Version | Previous Version | Text Only | Print | Product List | Glossary Off
Versions: 1 2 3 4 5 6 7 8 9 10 11 12 13 14 15 16 17 18 19 20 21 22 23 24 25 26 27 28 29 30 31 32 33 34 35 36 37 38 39 40 41 42 43 44 45 46 47 48 49 50

000
ASUS43 KFSD 271802
RWRFSD

WEATHER ROUNDUP FOR SE SOUTH DAKOTA/SW MINNESOTA/NW IOWA
NATIONAL WEATHER SERVICE SIOUX FALLS SD
100 PM CDT THU APR 27 2017

NOTE: "FAIR" INDICATES FEW OR NO CLOUDS BELOW 12,000 FEET WITH NO
SIGNIFICANT WEATHER AND OR OBSTRUCTIONS TO VISIBILITY.


SDZ038>040-050-052>070-271900-
SOUTHEAST SOUTH DAKOTA

CITY           SKY/WX    TMP DP  RH WIND       PRES   REMARKS
BROOKINGS      CLOUDY    35  26  69 NW16      29.67F WCI  25
CHAMBERLAIN    PTSUNNY   44  31  61 N3        29.72F
6HR MIN TEMP:  32; 6HR MAX TEMP:  45;

HURON          CLOUDY    40  28  62 NW10G23   29.72F
6HR MIN TEMP:  30; 6HR MAX TEMP:  40;

MADISON        CLOUDY    37  32  81 NW18      29.68F
MITCHELL       MOSUNNY   44  29  55 N15G21    29.73F
6HR MIN TEMP:  31; 6HR MAX TEMP:  44;

SIOUX FALLS    PTSUNNY   40  30  67 NW15G23   29.69F
6HR MIN TEMP:  31; 6HR MAX TEMP:  40;

WINNER         FAIR      44  31  60 SE3       29.71F
YANKTON        PTSUNNY   43  28  56 NW10G17   29.71S
$$

MNZ071-072-080-081-089-090-097-098-271900-
SOUTHWEST MINNESOTA

CITY           SKY/WX    TMP DP  RH WIND       PRES   REMARKS
JACKSON        CLOUDY    34  27  75 W17G25    29.65F WCI  23
LUVERNE        CLOUDY    34  27  75 NW16      29.69S WCI  23
MARSHALL       CLOUDY    33  25  72 NW18G24   29.67S WCI  22
6HR MIN TEMP:  28; 6HR MAX TEMP:  33;

MONTEVIDEO     CLOUDY    34  25  69 N17G25    29.66S WCI  23
PIPESTONE      CLOUDY    36  23  60 NW15G21   29.66S
REDWOOD FALLS  CLOUDY    34  24  67 NW16G22   29.65S WCI  24
TRACY          CLOUDY    33  28  81 NW14      29.67S WCI  23
WINDOM         SUNNY     34  27  75 NW16G22   29.65S WCI  23
WORTHINGTON    CLOUDY    35  26  69 NW17      29.66F WCI  25
$$

IAZ001>003-012>014-020>022-031-032-NEZ013-014-SDZ071-271900-
NORTHWEST IOWA

CITY           SKY/WX    TMP DP  RH WIND       PRES   REMARKS
CHEROKEE       CLOUDY    37  31  78 W12G17    29.70S
DENISON        MOSUNNY   45  34  65 NW13G20   29.71F
ESTHERVILLE    CLOUDY    34  28  79 W17       29.66S WCI  23
LE MARS        CLOUDY    41  30  65 NW14G20   29.72S
ORANGE CITY    CLOUDY    41  34  75 NW16      29.68F
SHELDON        CLOUDY    37  30  75 NW17G24   29.67S
SIOUX CITY     MOSUNNY   45  33  63 NW17G23   29.71F
6HR MIN TEMP:  32; 6HR MAX TEMP:  45;

SPENCER        CLOUDY    38  27  64 NW14G23   29.68S
6HR MIN TEMP:  30; 6HR MAX TEMP:  38;

STORM LAKE       N/A     36  30  80 NW16      29.69S
$$

ABBREVIATIONS USED IN REMARKS
   TC - TEMPERATURE IN CELSIUS
  WCI - WIND CHILL INDEX
   HX - HEAT INDEX
  VSB - VISIBILITY





USA.gov is the U.S. government's official web portal to all federal, state and local government web resources and services.